M I D A S
Marine Information and Data Acquisition System
Tripno 1196 of the Zeeleeuw from 2006-11-27 08:23:47 to 2006-11-27 14:41:10
Back to CruiseResearch ActivitiesStationsMapUnderway DataData graphs

EquipmentUnitsComment
TimeDGPSUTC
LatitudeDGPSDM.mWGS84
LongitudeDGPSDM.mWGS84
TemperatureSBE03/SBE38deg celciusITS90
ConductivitySBE21S/mITS90
SalinitySBE21 Practical Salinity Units
ChlorophylAChelsea fluorimeterg/lCalibrated in Aceton
Missing or incorrect values are displayed as -999
Sea surface data collected by the RV Zeeleeuw from 2006-11-27 06:59:38 to 2006-11-27 14:41:10
Time Latitude Longitude Temperature Conductivity Salinity ChlorophylA
2006-11-27 07:00:43 51°13.598 2°56.095 -999 0.002108 0.016918 -2.871232
2006-11-27 07:01:43 51°13.598 2°56.094 -999 0.002108 0.016917 -2.871232
2006-11-27 07:02:43 51°13.598 2°56.093 -999 0.002108 0.016917 -2.871232
2006-11-27 07:03:43 51°13.599 2°56.093 -999 0.002108 0.016917 -2.871232
2006-11-27 07:04:43 51°13.598 2°56.094 -999 0.002108 0.016916 -2.871232
2006-11-27 07:05:43 51°13.599 2°56.094 -999 0.002108 0.016916 -2.871232
2006-11-27 07:06:43 51°13.599 2°56.094 -999 0.002108 0.016916 -2.871232
2006-11-27 07:07:43 51°13.599 2°56.094 -999 0.002108 0.016916 -2.871232
2006-11-27 07:08:43 51°13.599 2°56.095 -999 0.002108 0.016915 -2.871232
2006-11-27 07:09:43 51°13.599 2°56.094 -999 0.002108 0.016915 -2.871232
2006-11-27 07:10:43 51°13.599 2°56.094 -999 0.002108 0.016915 -2.871232
2006-11-27 07:11:43 51°13.599 2°56.094 -999 0.002108 0.016914 -2.871232
2006-11-27 07:12:43 51°13.598 2°56.094 -999 0.002108 0.016914 -2.871232
2006-11-27 07:13:43 51°13.599 2°56.094 -999 0.002108 0.016914 -2.871232
2006-11-27 07:14:43 51°13.598 2°56.094 -999 0.002108 0.016914 -2.871232
2006-11-27 07:15:43 51°13.598 2°56.094 -999 0.002108 0.016914 -2.871232
2006-11-27 07:16:43 51°13.599 2°56.094 -999 0.002108 0.016913 -2.871232
2006-11-27 07:17:43 51°13.598 2°56.094 -999 0.002108 0.016913 -2.871232
2006-11-27 07:18:43 51°13.598 2°56.095 -999 0.002108 0.016913 -2.871232
2006-11-27 07:19:43 51°13.599 2°56.095 -999 0.002108 0.016913 -2.871232
2006-11-27 07:20:43 51°13.599 2°56.094 -999 0.002108 0.016913 -2.871232
2006-11-27 07:21:43 51°13.598 2°56.095 -999 0.002108 0.016913 -2.871232
2006-11-27 07:22:43 51°13.598 2°56.095 -999 0.002108 0.016913 -2.871232
2006-11-27 07:23:43 51°13.599 2°56.095 -999 0.002108 0.016913 -2.871232
2006-11-27 07:24:43 51°13.599 2°56.095 -999 0.002108 0.016913 -2.871232
2006-11-27 07:25:43 51°13.599 2°56.095 -999 0.002108 0.016913 -2.871232
2006-11-27 07:26:43 51°13.599 2°56.094 -999 0.002108 0.016913 -2.871232
2006-11-27 07:27:43 51°13.599 2°56.094 -999 0.002108 0.016912 -2.871232
2006-11-27 07:28:43 51°13.598 2°56.093 -999 0.002108 0.016912 -2.871232
2006-11-27 07:29:43 51°13.598 2°56.093 -999 0.002108 0.016912 -2.871232
2006-11-27 07:30:43 51°13.598 2°56.093 -999 0.002108 0.016912 -2.871232
2006-11-27 07:31:43 51°13.597 2°56.092 -999 0.002108 0.016912 -2.871232
2006-11-27 07:32:43 51°13.596 2°56.092 -999 0.002108 0.016912 -2.871232
2006-11-27 07:33:43 51°13.596 2°56.092 -999 0.002108 0.016912 -2.871232
2006-11-27 07:34:43 51°13.597 2°56.092 -999 0.002108 0.016912 -2.871232
2006-11-27 07:35:43 51°13.597 2°56.092 -999 0.002108 0.016912 -2.871232
2006-11-27 07:36:43 51°13.597 2°56.093 -999 0.002108 0.016912 -2.871232
2006-11-27 07:37:43 51°13.597 2°56.093 -999 0.002108 0.016912 -2.871232
2006-11-27 07:38:43 51°13.597 2°56.092 -999 0.002108 0.016912 -2.871232
2006-11-27 07:39:43 51°13.598 2°56.093 -999 0.002108 0.016911 -2.871232
2006-11-27 07:40:43 51°13.598 2°56.094 -999 0.002108 0.016911 -2.871232
2006-11-27 07:41:43 51°13.598 2°56.094 -999 0.002108 0.016911 -2.871232
2006-11-27 07:42:43 51°13.598 2°56.095 -999 0.002108 0.016911 -2.871232
2006-11-27 07:43:43 51°13.598 2°56.095 -999 0.002108 0.016911 -2.871232
2006-11-27 07:44:43 51°13.599 2°56.096 -999 0.002108 0.016911 -2.871232
2006-11-27 07:45:43 51°13.599 2°56.095 -999 0.002108 0.016911 -2.871232
2006-11-27 07:46:43 51°13.599 2°56.094 -999 0.002108 0.016911 -2.871232
2006-11-27 07:47:43 51°13.599 2°56.094 -999 0.002108 0.016911 -2.871232
2006-11-27 07:48:43 51°13.599 2°56.094 -999 0.002108 0.016911 -2.871232
2006-11-27 07:49:43 51°13.599 2°56.095 -999 0.002108 0.016911 -2.871232
2006-11-27 07:50:43 51°13.599 2°56.095 -999 0.002108 0.016911 -2.871232
2006-11-27 07:51:43 51°13.598 2°56.093 -999 0.002108 0.016911 -2.871232
2006-11-27 07:52:43 51°13.599 2°56.093 -999 0.002108 0.016911 -2.871232
2006-11-27 07:53:43 51°13.599 2°56.094 -999 0.002108 0.016911 -2.871232
2006-11-27 07:54:43 51°13.599 2°56.095 -999 0.002108 0.016911 -2.871232
2006-11-27 07:55:43 51°13.598 2°56.095 -999 0.002108 0.016911 -2.871232
2006-11-27 07:56:43 51°13.599 2°56.095 -999 0.002108 0.016911 -2.871232
2006-11-27 07:57:43 51°13.598 2°56.095 -999 0.002108 0.016911 -2.871232
2006-11-27 07:58:43 51°13.598 2°56.095 -999 0.002108 0.016911 -2.871232
2006-11-27 07:59:43 51°13.598 2°56.095 -999 0.002108 0.016911 -2.871232
2006-11-27 08:00:39 51°13.598 2°56.095 -999 0.002108 0.016911 -2.871232
2006-11-27 08:01:39 51°13.598 2°56.095 -999 0.002108 0.016911 -2.871232
2006-11-27 08:02:39 51°13.599 2°56.095 -999 0.002108 0.016911 -2.871232
2006-11-27 08:03:39 51°13.599 2°56.095 -999 0.002108 0.016911 -2.871232
2006-11-27 08:04:39 51°13.599 2°56.096 -999 0.002108 0.016911 -2.871232
2006-11-27 08:05:39 51°13.601 2°56.099 -999 0.002108 0.016911 -2.871232
2006-11-27 08:06:39 51°13.6 2°56.097 -999 0.002108 0.016911 -2.871232
2006-11-27 08:07:39 51°13.598 2°56.095 -999 0.002108 0.016911 -2.871232
2006-11-27 08:08:39 51°13.6 2°56.095 -999 0.002108 0.016911 -2.871232
2006-11-27 08:09:39 51°13.6 2°56.095 -999 0.002108 0.016911 -2.871232
2006-11-27 08:10:39 51°13.599 2°56.094 -999 0.002108 0.016911 -2.871232
2006-11-27 08:11:39 51°13.599 2°56.094 -999 0.002108 0.016911 -2.871232
2006-11-27 08:12:39 51°13.599 2°56.094 -999 0.002108 0.016911 -2.871232
2006-11-27 08:13:39 51°13.599 2°56.095 -999 0.002108 0.016911 -2.871232
2006-11-27 08:14:39 51°13.596 2°56.095 -999 0.002108 0.016912 -2.871232
2006-11-27 08:15:39 51°13.596 2°56.095 -999 0.002108 0.016912 -2.871232
2006-11-27 08:16:39 51°13.594 2°56.095 -999 0.002108 0.016912 -2.871232
2006-11-27 08:17:39 51°13.595 2°56.096 -999 0.002108 0.016912 -2.871232
2006-11-27 08:18:40 51°13.599 2°56.097 -999 0.002108 0.016912 -2.871232
2006-11-27 08:19:39 51°13.6 2°56.097 -999 0.002108 0.016912 -2.871232
2006-11-27 08:20:40 51°13.597 2°56.096 -999 0.002108 0.016912 -2.871232
2006-11-27 08:21:39 51°13.598 2°56.097 -999 0.002108 0.016913 -2.871232
2006-11-27 08:22:39 51°13.599 2°56.097 -999 0.002108 0.016913 -2.871232
2006-11-27 08:23:39 51°13.597 2°56.096 -999 0.002108 0.016913 -2.871232
2006-11-27 08:24:39 51°13.598 2°56.089 -999 0.002108 0.016913 -2.871232
2006-11-27 08:25:40 51°13.618 2°56.02 -999 0.002108 0.016913 -2.871232
2006-11-27 08:26:40 51°13.653 2°55.898 -999 0.002108 0.016914 -2.871232
2006-11-27 08:27:39 51°13.704 2°55.76 -999 0.002108 0.016914 -2.871232
2006-11-27 08:28:39 51°13.723 2°55.723 -999 0.002108 0.016914 -2.871232
2006-11-27 08:29:40 51°13.723 2°55.713 -999 0.002108 0.016914 -2.871232
2006-11-27 08:30:39 51°13.737 2°55.697 -999 0.002108 0.016914 -2.871232
2006-11-27 08:31:39 51°13.835 2°55.634 -999 0.002108 0.016915 -2.871232
2006-11-27 08:32:39 51°13.94 2°55.556 -999 0.002108 0.016915 -2.871232
2006-11-27 08:33:39 51°14.037 2°55.49 -999 0.002108 0.016915 -2.871232
2006-11-27 08:34:39 51°14.131 2°55.418 -999 0.002108 0.016916 -2.871232
2006-11-27 08:35:39 51°14.252 2°55.284 -999 0.002108 0.016916 -2.871232
2006-11-27 08:36:39 51°14.367 2°55.074 -999 0.002108 0.016917 -2.871232
2006-11-27 08:37:39 51°14.503 2°54.894 -999 0.002108 0.016917 -2.871232
2006-11-27 08:38:39 51°14.62 2°54.772 -999 0.002108 0.016917 -2.871232
2006-11-27 08:39:39 51°14.774 2°54.644 -999 0.002108 0.016917 -2.871232
2006-11-27 08:40:39 51°14.95 2°54.455 -999 0.002108 0.016917 -2.871232
2006-11-27 08:41:39 51°15.138 2°54.266 -999 0.002108 0.016918 -2.871232
2006-11-27 08:42:39 51°15.336 2°54.084 -999 0.002108 0.016918 -2.871232
2006-11-27 08:43:39 51°15.536 2°53.896 -999 0.002108 0.016918 -2.871232
2006-11-27 08:44:39 51°15.737 2°53.704 -999 0.002108 0.016918 -2.871232
2006-11-27 08:45:39 51°15.942 2°53.516 -999 0.002108 0.016918 -2.871232
2006-11-27 08:46:39 51°16.147 2°53.332 -999 0.002108 0.016918 -2.871232
2006-11-27 08:47:39 51°16.352 2°53.15 -999 0.002108 0.016918 -2.871232
2006-11-27 08:48:39 51°16.56 2°52.979 -999 0.002108 0.016918 -2.871232
2006-11-27 08:49:39 51°16.767 2°52.812 -999 0.002108 0.016918 -2.871232
2006-11-27 08:50:39 51°16.976 2°52.663 -999 0.002108 0.016918 -2.871232
2006-11-27 08:51:39 51°17.199 2°52.558 -999 0.002108 0.016918 -2.871232
2006-11-27 08:52:39 51°17.424 2°52.466 -999 0.002108 0.016918 -2.871232
2006-11-27 08:53:39 51°17.656 2°52.441 -999 -999 -999 -2.871232
2006-11-27 08:54:39 51°17.883 2°52.495 -999 0.002108 -999 -2.871232
2006-11-27 08:55:39 51°18.096 2°52.631 -999 0.002108 0.016918 -2.871232
2006-11-27 08:56:39 51°18.268 2°52.868 -999 0.002108 0.016918 -2.871232
2006-11-27 08:57:39 51°18.439 2°53.107 -999 0.002108 0.016918 -2.871232
2006-11-27 08:58:39 51°18.615 2°53.34 -999 -999 -999 -2.871232
2006-11-27 08:59:39 51°18.792 2°53.567 -999 0.002108 0.016918 -2.871232
2006-11-27 09:00:39 51°18.968 2°53.797 -999 0.002108 0.016919 -2.871232
2006-11-27 09:01:39 51°19.146 2°54.021 -999 0.002108 0.016919 -2.871232
2006-11-27 09:02:39 51°19.322 2°54.249 -999 0.002108 0.01738 -2.871232
2006-11-27 09:03:39 51°19.5 2°54.474 -999 -999 -999 -999
2006-11-27 09:04:39 51°19.676 2°54.702 -999 0.002108 -999 -2.871232
2006-11-27 09:05:39 51°19.855 2°54.924 -999 -999 -999 -2.871232
2006-11-27 09:06:39 51°20.028 2°55.154 -999 0.002108 0.016919 -2.871232
2006-11-27 09:07:39 51°20.205 2°55.383 -999 0.002108 0.01692 -2.871232
2006-11-27 09:08:39 51°20.384 2°55.607 -999 0.002108 0.016919 -2.871232
2006-11-27 09:09:39 51°20.546 2°55.861 -999 0.002108 0.016919 -2.871232
2006-11-27 09:10:39 51°20.705 2°56.118 -999 0.002108 0.016919 -2.871232
2006-11-27 09:11:39 51°20.871 2°56.366 -999 0.002108 0.01692 -2.871232
2006-11-27 09:12:39 51°21.034 2°56.617 -999 -999 -999 -2.871232
2006-11-27 09:13:39 51°21.198 2°56.868 -999 0.002108 -999 -2.871232
2006-11-27 09:14:39 51°21.335 2°57.07 -999 -999 -999 -999
2006-11-27 14:25:21 51°13.599 2°56.095 -999 0.053153 0.315223 -2.871232
2006-11-27 14:26:21 51°13.6 2°56.095 -999 0.053153 0.31521 -2.871232
2006-11-27 14:27:21 51°13.601 2°56.096 -999 0.053153 0.315182 -2.871232
2006-11-27 14:31:51 51°13.6 2°56.096 -999 0.053255 0.31577 -2.871232
2006-11-27 14:32:51 51°13.6 2°56.095 -999 0.053255 0.315756 -2.871232
2006-11-27 14:33:51 51°13.6 2°56.095 -999 0.053255 0.315735 -2.871232
2006-11-27 14:34:51 51°13.6 2°56.095 -999 0.053358 0.316344 -2.871232
2006-11-27 14:35:51 51°13.6 2°56.095 -999 0.053358 0.316337 -2.871232
2006-11-27 14:36:51 51°13.601 2°56.094 -999 0.053358 0.31633 -2.871232
2006-11-27 14:37:51 51°13.601 2°56.094 -999 0.053461 0.316952 -2.871232
2006-11-27 14:38:51 51°13.601 2°56.094 -999 0.053461 0.316938 -2.871232
2006-11-27 14:39:51 51°13.601 2°56.093 -999 0.053461 0.316931 -2.871232
2006-11-27 14:40:51 51°13.6 2°56.094 -999 0.053564 0.317553 -2.871232